Location: ??
(35.1714°N, 128.2806°E)
Time: 14:37:57
(UTC+00:00)

ADEOS Rocket - Pass Details

Date: 29 October 2020
Orbit: 859 x 1306 km, 98.7° (Epoch: 30 November)

Event Time Altitude Azimuth Distance (km) Brightness Sun altitude
Rises 19:49:37 0° 174° (S) 3,455 6.0 -24.3°
Reaches altitude 10° 19:52:02 10° 178° (S) 2,499 5.2 -23.8°
Maximum altitude 19:57:27 63° 259° (WSW) 958 2.6 -22.7°
Drops below altitude 10° 20:02:57 10° 340° (NNW) 2,537 5.0 -21.6°
Sets 20:05:25 0° 344° (NNW) 3,512 5.7 -21.1°
